| time (UTC) | temp F | wind direction | speed MPH | gust MPH | rain 1hr in | rain 24hr in | rain mn in | humidity % | barometer mb |
| 20260510192504 | 62 | 124 | 4.0 | 8.0 | 0.00 | 0.01 | 0.01 | 58 | 1023.2 |
| 20260510192004 | 62 | 141 | 4.0 | 8.0 | 0.00 | 0.01 | 0.01 | 59 | 1023.2 |
| 20260510191504 | 62 | 130 | 4.0 | 9.0 | 0.00 | 0.01 | 0.01 | 61 | 1023.3 |
| 20260510191003 | 61 | 121 | 4.0 | 10.0 | 0.00 | 0.01 | 0.01 | 61 | 1023.3 |
| 20260510190504 | 61 | 143 | 4.0 | 10.0 | 0.00 | 0.01 | 0.01 | 64 | 1023.4 |
| 20260510190009 | 61 | 143 | 4.0 | 8.0 | 0.00 | 0.01 | 0.01 | 61 | 1023.6 |
| 20260510185504 | 60 | 123 | 3.0 | 7.0 | 0.00 | 0.01 | 0.01 | 64 | 1023.7 |
| 20260510185003 | 60 | 121 | 4.0 | 11.0 | 0.00 | 0.01 | 0.01 | 67 | 1023.7 |
| 20260510184504 | 59 | 108 | 4.0 | 11.0 | 0.00 | 0.01 | 0.01 | 67 | 1023.7 |
| 20260510184003 | 59 | 104 | 4.0 | 10.0 | 0.00 | 0.01 | 0.01 | 68 | 1023.8 |
| 20260510183503 | 59 | 109 | 4.0 | 7.0 | 0.00 | 0.01 | 0.01 | 68 | 1023.8 |
| 20260510183213 | 59 | 107 | 4.0 | 7.0 | 0.00 | 0.01 | 0.01 | 69 | 1023.8 |
| 20260510182503 | 59 | 131 | 4.0 | 9.0 | 0.00 | 0.01 | 0.01 | 68 | 1023.9 |
| 20260510182003 | 59 | 134 | 4.0 | 9.0 | 0.00 | 0.01 | 0.01 | 67 | 1023.9 |
| 20260510181504 | 59 | 114 | 5.0 | 11.0 | 0.00 | 0.01 | 0.01 | 68 | 1023.9 |
| 20260510181215 | 59 | 108 | 4.0 | 11.0 | 0.00 | 0.01 | 0.01 | 69 | 1024.0 |
| 20260510180719 | 58 | 103 | 5.0 | 11.0 | 0.00 | 0.01 | 0.01 | 68 | 1023.9 |
| 20260510180004 | 59 | 110 | 4.0 | 10.0 | 0.00 | 0.01 | 0.01 | 68 | 1023.9 |
| 20260510175504 | 59 | 110 | 3.0 | 6.0 | 0.00 | 0.01 | 0.01 | 67 | 1024.0 |
| 20260510175013 | 58 | 92 | 3.0 | 7.0 | 0.00 | 0.01 | 0.01 | 67 | 1023.9 |
| 20260510174503 | 58 | 88 | 4.0 | 7.0 | 0.00 | 0.01 | 0.01 | 66 | 1024.0 |
| 20260510174004 | 58 | 82 | 4.0 | 8.0 | 0.00 | 0.01 | 0.01 | 67 | 1023.9 |
| 20260510173504 | 58 | 74 | 4.0 | 8.0 | 0.00 | 0.01 | 0.01 | 69 | 1023.9 |
| 20260510173003 | 57 | 83 | 4.0 | 8.0 | 0.00 | 0.01 | 0.01 | 68 | 1023.9 |
| 20260510172503 | 58 | 85 | 4.0 | 9.0 | 0.00 | 0.01 | 0.01 | 68 | 1023.7 |
| 20260510172004 | 58 | 82 | 4.0 | 9.0 | 0.00 | 0.01 | 0.01 | 71 | 1023.9 |
| 20260510171504 | 57 | 85 | 5.0 | 8.0 | 0.00 | 0.01 | 0.01 | 70 | 1023.7 |
| 20260510171003 | 57 | 76 | 4.0 | 8.0 | 0.00 | 0.01 | 0.01 | 70 | 1023.8 |
| 20260510170503 | 57 | 83 | 4.0 | 8.0 | 0.00 | 0.01 | 0.01 | 69 | 1023.8 |
| 20260510170004 | 57 | 85 | 4.0 | 8.0 | 0.00 | 0.01 | 0.01 | 71 | 1023.8 |
| 20260510165715 | 57 | 67 | 4.0 | 8.0 | 0.00 | 0.01 | 0.01 | 71 | 1023.7 |
| 20260510165003 | 57 | 75 | 3.0 | 7.0 | 0.00 | 0.01 | 0.01 | 72 | 1023.8 |
| 20260510164503 | 56 | 85 | 3.0 | 8.0 | 0.00 | 0.01 | 0.01 | 73 | 1023.8 |
| 20260510164219 | 56 | 79 | 3.0 | 8.0 | 0.00 | 0.01 | 0.01 | 73 | 1023.9 |
| 20260510163717 | 56 | 86 | 4.0 | 8.0 | 0.00 | 0.01 | 0.01 | 74 | 1023.8 |
| 20260510163003 | 56 | 88 | 3.0 | 6.0 | 0.00 | 0.01 | 0.01 | 73 | 1023.8 |
| 20260510162503 | 56 | 86 | 2.0 | 6.0 | 0.00 | 0.01 | 0.01 | 73 | 1023.8 |
| 20260510162004 | 56 | 91 | 3.0 | 7.0 | 0.00 | 0.01 | 0.01 | 73 | 1023.8 |
| 20260510161503 | 56 | 83 | 3.0 | 7.0 | 0.00 | 0.01 | 0.01 | 73 | 1023.7 |
| 20260510161009 | 56 | 78 | 3.0 | 6.0 | 0.00 | 0.01 | 0.01 | 73 | 1023.7 |
| 20260510160715 | 56 | 81 | 2.0 | 5.0 | 0.00 | 0.01 | 0.01 | 73 | 1023.7 |
| 20260510160004 | 56 | 90 | 2.0 | 5.0 | 0.00 | 0.01 | 0.01 | 74 | 1023.6 |
| 20260510155503 | 55 | 82 | 3.0 | 5.0 | 0.00 | 0.01 | 0.01 | 76 | 1023.5 |
| 20260510155003 | 55 | 81 | 3.0 | 7.0 | 0.00 | 0.01 | 0.01 | 75 | 1023.5 |
| 20260510154504 | 55 | 73 | 3.0 | 7.0 | 0.00 | 0.01 | 0.01 | 75 | 1023.5 |
| 20260510154215 | 55 | 68 | 3.0 | 6.0 | 0.00 | 0.01 | 0.01 | 77 | 1023.5 |
| 20260510153503 | 54 | 60 | 3.0 | 5.0 | 0.00 | 0.01 | 0.01 | 77 | 1023.6 |
| 20260510153004 | 54 | 69 | 3.0 | 6.0 | 0.00 | 0.01 | 0.01 | 77 | 1023.6 |
| 20260510152503 | 54 | 63 | 3.0 | 7.0 | 0.00 | 0.01 | 0.01 | 77 | 1023.5 |
| 20260510152222 | 55 | 55 | 4.0 | 7.0 | 0.00 | 0.01 | 0.01 | 77 | 1023.5 |
| 20260510151714 | 54 | 53 | 4.0 | 7.0 | 0.00 | 0.01 | 0.01 | 78 | 1023.5 |
| 20260510151003 | 54 | 72 | 4.0 | 6.0 | 0.00 | 0.01 | 0.01 | 79 | 1023.3 |
| 20260510150513 | 54 | 65 | 4.0 | 7.0 | 0.00 | 0.01 | 0.01 | 78 | 1023.4 |
| 20260510150003 | 54 | 60 | 4.0 | 7.0 | 0.00 | 0.01 | 0.01 | 80 | 1023.4 |
| 20260510145504 | 54 | 56 | 4.0 | 6.0 | 0.00 | 0.01 | 0.01 | 80 | 1023.3 |
| 20260510145009 | 54 | 52 | 4.0 | 6.0 | 0.00 | 0.01 | 0.01 | 80 | 1023.2 |
| 20260510144503 | 54 | 55 | 4.0 | 6.0 | 0.00 | 0.01 | 0.01 | 80 | 1023.2 |
| 20260510144215 | 54 | 59 | 4.0 | 6.0 | 0.00 | 0.01 | 0.01 | 81 | 1023.2 |
| 20260510143504 | 54 | 62 | 2.0 | 5.0 | 0.00 | 0.01 | 0.01 | 80 | 1023.2 |
| 20260510143004 | 54 | 62 | 2.0 | 4.0 | 0.00 | 0.01 | 0.01 | 80 | 1023.1 |
| 20260510142714 | 54 | 62 | 2.0 | 4.0 | 0.00 | 0.01 | 0.01 | 80 | 1023.1 |
| 20260510142003 | 53 | 62 | 0.0 | 2.0 | 0.00 | 0.01 | 0.01 | 81 | 1023.1 |
| 20260510141509 | 53 | 62 | 1.0 | 3.0 | 0.00 | 0.01 | 0.01 | 81 | 1023.1 |
| 20260510141003 | 53 | 62 | 1.0 | 3.0 | 0.00 | 0.01 | 0.01 | 81 | 1023.2 |
| 20260510140503 | 53 | 62 | 1.0 | 3.0 | 0.00 | 0.01 | 0.01 | 81 | 1023.1 |
| 20260510140003 | 53 | 62 | 1.0 | 3.0 | 0.00 | 0.01 | 0.01 | 81 | 1023.1 |
| 20260510135504 | 53 | 62 | 0.0 | 2.0 | 0.00 | 0.01 | 0.01 | 82 | 1023.1 |
| 20260510135004 | 53 | 62 | 1.0 | 3.0 | 0.00 | 0.01 | 0.01 | 82 | 1023.0 |
| 20260510134504 | 53 | 62 | 2.0 | 3.0 | 0.00 | 0.01 | 0.01 | 82 | 1023.1 |
| 20260510134216 | 53 | 62 | 2.0 | 3.0 | 0.00 | 0.01 | 0.01 | 82 | 1023.1 |
| 20260510133714 | 53 | 62 | 2.0 | 3.0 | 0.00 | 0.01 | 0.01 | 82 | 1023.1 |
| 20260510133004 | 52 | 62 | 3.0 | 4.0 | 0.00 | 0.01 | 0.01 | 82 | 1023.1 |
| 20260510132508 | 52 | 62 | 3.0 | 5.0 | 0.00 | 0.01 | 0.01 | 82 | 1023.0 |
| 20260510132213 | 52 | 62 | 4.0 | 6.0 | 0.00 | 0.01 | 0.01 | 82 | 1023.0 |
| 20260510131503 | 52 | 44 | 4.0 | 6.0 | 0.00 | 0.01 | 0.01 | 82 | 1023.0 |
| 20260510131003 | 53 | 33 | 3.0 | 6.0 | 0.00 | 0.01 | 0.01 | 83 | 1022.8 |
| 20260510130503 | 52 | 33 | 3.0 | 4.0 | 0.00 | 0.01 | 0.01 | 83 | 1022.7 |
| 20260510130004 | 52 | 33 | 3.0 | 7.0 | 0.00 | 0.01 | 0.01 | 83 | 1022.6 |
| 20260510125503 | 52 | 33 | 3.0 | 7.0 | 0.00 | 0.01 | 0.01 | 83 | 1022.8 |
| 20260510125003 | 52 | 33 | 3.0 | 6.0 | 0.00 | 0.01 | 0.01 | 84 | 1022.6 |
| 20260510124503 | 52 | 33 | 3.0 | 6.0 | 0.00 | 0.01 | 0.01 | 84 | 1022.6 |
| 20260510124009 | 52 | 33 | 3.0 | 4.0 | 0.00 | 0.01 | 0.01 | 83 | 1022.6 |
| 20260510123714 | 52 | 33 | 3.0 | 5.0 | 0.00 | 0.01 | 0.01 | 83 | 1022.5 |
| 20260510123217 | 52 | 26 | 3.0 | 6.0 | 0.00 | 0.01 | 0.01 | 83 | 1022.4 |
| 20260510122503 | 52 | 18 | 4.0 | 6.0 | 0.00 | 0.01 | 0.01 | 83 | 1022.4 |
| 20260510122004 | 52 | 14 | 4.0 | 6.0 | 0.00 | 0.01 | 0.01 | 83 | 1022.2 |
| 20260510121504 | 52 | 3 | 4.0 | 6.0 | 0.00 | 0.01 | 0.01 | 83 | 1022.1 |
| 20260510121004 | 53 | 359 | 4.0 | 7.0 | 0.00 | 0.01 | 0.01 | 83 | 1021.9 |
| 20260510120503 | 53 | 3 | 5.0 | 9.0 | 0.00 | 0.01 | 0.01 | 83 | 1021.9 |
| 20260510120003 | 53 | 5 | 6.0 | 9.0 | 0.00 | 0.01 | 0.01 | 83 | 1021.9 |
| 20260510115504 | 52 | 3 | 5.0 | 9.0 | 0.00 | 0.01 | 0.01 | 83 | 1021.8 |
| 20260510115003 | 52 | 360 | 4.0 | 7.0 | 0.00 | 0.01 | 0.01 | 83 | 1021.8 |
| 20260510114504 | 52 | 347 | 4.0 | 7.0 | 0.00 | 0.01 | 0.01 | 83 | 1021.8 |
| 20260510114003 | 52 | 330 | 3.0 | 6.0 | 0.00 | 0.01 | 0.01 | 83 | 1021.7 |
| 20260510113504 | 52 | 325 | 3.0 | 5.0 | 0.00 | 0.01 | 0.01 | 83 | 1021.8 |
| 20260510113004 | 52 | 325 | 3.0 | 4.0 | 0.00 | 0.01 | 0.01 | 83 | 1021.6 |
| 20260510112503 | 52 | 325 | 3.0 | 5.0 | 0.00 | 0.01 | 0.01 | 82 | 1021.6 |
| 20260510112003 | 52 | 325 | 3.0 | 5.0 | 0.00 | 0.01 | 0.01 | 82 | 1021.8 |
| 20260510111503 | 52 | 323 | 3.0 | 6.0 | 0.00 | 0.01 | 0.01 | 82 | 1021.7 |
| 20260510111005 | 52 | 324 | 3.0 | 6.0 | 0.00 | 0.01 | 0.01 | 82 | 1021.7 |
| 20260510110713 | 52 | 325 | 3.0 | 6.0 | 0.00 | 0.01 | 0.01 | 82 | 1021.8 |
| 20260510110005 | 52 | 325 | 3.0 | 5.0 | 0.00 | 0.01 | 0.01 | 82 | 1021.8 |
| 20260510105714 | 52 | 325 | 3.0 | 5.0 | 0.00 | 0.01 | 0.01 | 83 | 1021.6 |
| 20260510105003 | 52 | 332 | 2.0 | 4.0 | 0.00 | 0.01 | 0.01 | 83 | 1021.5 |
| 20260510104715 | 52 | 338 | 2.0 | 4.0 | 0.00 | 0.01 | 0.01 | 83 | 1021.5 |
| 20260510104003 | 52 | 347 | 1.0 | 2.0 | 0.00 | 0.01 | 0.01 | 82 | 1021.5 |
| 20260510103503 | 52 | 347 | 1.0 | 3.0 | 0.00 | 0.01 | 0.01 | 81 | 1021.3 |
| 20260510103004 | 52 | 347 | 2.0 | 4.0 | 0.00 | 0.01 | 0.01 | 82 | 1021.3 |
| 20260510102504 | 52 | 358 | 2.0 | 5.0 | 0.00 | 0.01 | 0.01 | 82 | 1021.0 |
| 20260510102004 | 52 | 11 | 1.0 | 5.0 | 0.00 | 0.01 | 0.01 | 83 | 1021.1 |
| 20260510101503 | 52 | 0 | 0.0 | 0.0 | 0.00 | 0.01 | 0.01 | 84 | 1020.9 |
| 20260510101004 | 52 | 0 | 0.0 | 0.0 | 0.00 | 0.01 | 0.01 | 83 | 1021.0 |
| 20260510100503 | 52 | 0 | 0.0 | 0.0 | 0.00 | 0.01 | 0.01 | 83 | 1020.9 |
| 20260510100004 | 52 | 0 | 0.0 | 0.0 | 0.00 | 0.01 | 0.01 | 82 | 1021.0 |
| 20260510095504 | 52 | 0 | 0.0 | 0.0 | 0.00 | 0.01 | 0.01 | 83 | 1021.0 |
| 20260510095004 | 52 | 0 | 0.0 | 0.0 | 0.00 | 0.01 | 0.01 | 83 | 1021.0 |
| 20260510094503 | 52 | 29 | 0.0 | 1.0 | 0.00 | 0.01 | 0.01 | 82 | 1021.0 |
| 20260510094005 | 52 | 29 | 0.0 | 1.0 | 0.00 | 0.01 | 0.01 | 82 | 1020.9 |
| 20260510093503 | 52 | 29 | 0.0 | 1.0 | 0.00 | 0.01 | 0.01 | 81 | 1020.9 |
| 20260510093004 | 52 | 29 | 0.0 | 1.0 | 0.00 | 0.01 | 0.01 | 81 | 1020.8 |
| 20260510092503 | 52 | 29 | 0.0 | 1.0 | 0.00 | 0.01 | 0.01 | 81 | 1020.7 |
| 20260510092003 | 52 | 29 | 0.0 | 1.0 | 0.00 | 0.01 | 0.01 | 80 | 1020.7 |
| 20260510091504 | 52 | 29 | 0.0 | 1.0 | 0.00 | 0.01 | 0.01 | 79 | 1020.8 |
| 20260510091216 | 52 | 29 | 0.0 | 1.0 | 0.00 | 0.01 | 0.01 | 80 | 1020.7 |
| 20260510090503 | 52 | 29 | 1.0 | 3.0 | 0.00 | 0.01 | 0.01 | 79 | 1020.6 |
| 20260510090003 | 52 | 29 | 2.0 | 5.0 | 0.00 | 0.01 | 0.01 | 79 | 1020.5 |
| 20260510085504 | 52 | 29 | 3.0 | 5.0 | 0.00 | 0.01 | 0.01 | 79 | 1020.5 |
| 20260510085003 | 52 | 31 | 3.0 | 5.0 | 0.00 | 0.01 | 0.01 | 78 | 1020.3 |
| 20260510084509 | 52 | 35 | 3.0 | 5.0 | 0.00 | 0.01 | 0.01 | 78 | 1020.3 |
| 20260510084004 | 52 | 44 | 3.0 | 5.0 | 0.00 | 0.01 | 0.01 | 78 | 1020.3 |
| 20260510083503 | 52 | 53 | 3.0 | 6.0 | 0.00 | 0.01 | 0.01 | 78 | 1020.1 |
| 20260510083003 | 52 | 60 | 3.0 | 6.0 | 0.00 | 0.01 | 0.01 | 78 | 1019.9 |
| 20260510082504 | 52 | 72 | 2.0 | 6.0 | 0.00 | 0.01 | 0.01 | 78 | 1019.9 |
| 20260510082004 | 52 | 75 | 3.0 | 6.0 | 0.00 | 0.01 | 0.01 | 78 | 1019.7 |
| 20260510081504 | 52 | 76 | 3.0 | 7.0 | 0.00 | 0.01 | 0.01 | 78 | 1019.5 |
| 20260510081003 | 52 | 76 | 3.0 | 7.0 | 0.00 | 0.01 | 0.01 | 78 | 1019.5 |
| 20260510080504 | 52 | 70 | 4.0 | 7.0 | 0.00 | 0.01 | 0.01 | 78 | 1019.4 |
| 20260510080003 | 52 | 75 | 5.0 | 11.0 | 0.00 | 0.01 | 0.01 | 79 | 1019.4 |
| 20260510075503 | 52 | 78 | 7.0 | 11.0 | 0.01 | 0.01 | 0.01 | 79 | 1019.3 |
| 20260510075004 | 52 | 77 | 6.0 | 11.0 | 0.01 | 0.01 | 0.01 | 81 | 1019.3 |
| 20260510074503 | 52 | 79 | 5.0 | 11.0 | 0.01 | 0.01 | 0.01 | 82 | 1019.3 |
| 20260510074003 | 51 | 80 | 5.0 | 9.0 | 0.01 | 0.01 | 0.01 | 85 | 1019.3 |
| 20260510073504 | 51 | 70 | 5.0 | 8.0 | 0.01 | 0.01 | 0.01 | 88 | 1019.2 |
| 20260510073004 | 51 | 76 | 8.0 | 16.0 | 0.01 | 0.01 | 0.01 | 89 | 1019.3 |
| 20260510072503 | 50 | 81 | 9.0 | 16.0 | 0.01 | 0.01 | 0.01 | 90 | 1019.1 |
| 20260510072004 | 50 | 74 | 9.0 | 17.0 | 0.01 | 0.01 | 0.01 | 90 | 1018.9 |
| 20260510071504 | 50 | 71 | 13.0 | 23.0 | 0.01 | 0.01 | 0.01 | 90 | 1018.9 |
| 20260510071009 | 50 | 70 | 15.0 | 23.0 | 0.01 | 0.01 | 0.01 | 89 | 1019.0 |
| 20260510070715 | 50 | 68 | 15.0 | 22.0 | 0.01 | 0.01 | 0.01 | 89 | 1019.1 |
| 20260510070004 | 50 | 71 | 13.0 | 22.0 | 0.01 | 0.01 | 0.01 | 87 | 1019.2 |
| 20260510065503 | 51 | 69 | 13.0 | 22.0 | 0.00 | 0.00 | 0.00 | 85 | 1019.0 |
| 20260510065214 | 52 | 66 | 14.0 | 22.0 | 0.00 | 0.00 | 0.00 | 81 | 1019.0 |
| 20260510064504 | 54 | 66 | 16.0 | 24.0 | 0.00 | 0.00 | 0.00 | 68 | 1018.9 |
| 20260510064004 | 54 | 62 | 16.0 | 26.0 | 0.00 | 0.00 | 0.00 | 67 | 1018.9 |
| 20260510063503 | 55 | 61 | 16.0 | 26.0 | 0.00 | 0.00 | 0.00 | 66 | 1018.9 |
| 20260510063004 | 55 | 60 | 16.0 | 23.0 | 0.00 | 0.00 | 0.00 | 64 | 1018.8 |
| 20260510062503 | 55 | 56 | 17.0 | 24.0 | 0.00 | 0.00 | 0.00 | 63 | 1018.7 |
| 20260510062003 | 55 | 55 | 16.0 | 24.0 | 0.00 | 0.00 | 0.00 | 61 | 1018.7 |
| 20260510061503 | 55 | 54 | 15.0 | 29.0 | 0.00 | 0.00 | 0.00 | 61 | 1018.7 |
| 20260510061004 | 56 | 51 | 18.0 | 29.0 | 0.00 | 0.00 | 0.00 | 61 | 1018.6 |
| 20260510060504 | 56 | 48 | 18.0 | 26.0 | 0.00 | 0.00 | 0.00 | 61 | 1018.4 |
| 20260510060003 | 56 | 51 | 18.0 | 28.0 | 0.00 | 0.00 | 0.00 | 61 | 1018.1 |
| 20260510055504 | 56 | 56 | 20.0 | 28.0 | 0.00 | 0.00 | 0.00 | 60 | 1017.9 |
| 20260510055004 | 56 | 58 | 22.0 | 33.0 | 0.00 | 0.00 | 0.00 | 59 | 1017.5 |
| 20260510054504 | 56 | 57 | 21.0 | 33.0 | 0.00 | 0.00 | 0.00 | 59 | 1017.2 |
| 20260510054003 | 56 | 54 | 21.0 | 34.0 | 0.00 | 0.00 | 0.00 | 59 | 1017.2 |
| 20260510053504 | 57 | 52 | 22.0 | 34.0 | 0.00 | 0.00 | 0.00 | 60 | 1017.0 |
| 20260510053004 | 57 | 52 | 19.0 | 33.0 | 0.00 | 0.00 | 0.00 | 59 | 1017.1 |
| 20260510052503 | 58 | 52 | 19.0 | 28.0 | 0.00 | 0.00 | 0.00 | 58 | 1016.8 |
| 20260510052003 | 60 | 54 | 19.0 | 28.0 | 0.00 | 0.00 | 0.00 | 53 | 1016.5 |
| 20260510051504 | 63 | 54 | 18.0 | 26.0 | 0.00 | 0.00 | 0.00 | 51 | 1016.1 |
| 20260510051214 | 63 | 52 | 18.0 | 26.0 | 0.00 | 0.00 | 0.00 | 48 | 1015.9 |
| 20260510050508 | 63 | 41 | 16.0 | 26.0 | 0.00 | 0.00 | 0.00 | 47 | 1015.6 |
| 20260510050004 | 63 | 30 | 15.0 | 26.0 | 0.00 | 0.00 | 0.00 | 46 | 1015.9 |
| 20260510045712 | 63 | 30 | 14.0 | 20.0 | 0.00 | 0.00 | 0.00 | 46 | 1016.0 |
| 20260510045004 | 63 | 48 | 11.0 | 20.0 | 0.00 | 0.00 | 0.00 | 47 | 1015.3 |
| 20260510044714 | 63 | 56 | 9.0 | 15.0 | 0.00 | 0.00 | 0.00 | 47 | 1014.6 |
| 20260510044003 | 62 | 63 | 5.0 | 10.0 | 0.00 | 0.00 | 0.00 | 47 | 1014.1 |
| 20260510043504 | 61 | 62 | 3.0 | 10.0 | 0.00 | 0.00 | 0.00 | 47 | 1013.8 |
| 20260510043222 | 61 | 59 | 3.0 | 6.0 | 0.00 | 0.00 | 0.00 | 47 | 1013.6 |
| 20260510042503 | 60 | 52 | 3.0 | 4.0 | 0.00 | 0.00 | 0.00 | 47 | 1013.2 |
| 20260510042004 | 60 | 42 | 4.0 | 6.0 | 0.00 | 0.00 | 0.00 | 47 | 1013.1 |
| 20260510041504 | 61 | 21 | 3.0 | 6.0 | 0.00 | 0.00 | 0.00 | 46 | 1012.9 |
| 20260510041003 | 62 | 319 | 1.0 | 3.0 | 0.00 | 0.00 | 0.00 | 43 | 1012.7 |
| 20260510040504 | 61 | 273 | 0.0 | 1.0 | 0.00 | 0.00 | 0.00 | 42 | 1012.6 |
| 20260510040004 | 61 | 273 | 0.0 | 1.0 | 0.00 | 0.00 | 0.00 | 41 | 1012.4 |
| 20260510035504 | 62 | 298 | 0.0 | 2.0 | 0.00 | 0.00 | 0.00 | 40 | 1012.4 |
| 20260510035003 | 63 | 13 | 1.0 | 2.0 | 0.00 | 0.00 | 0.00 | 38 | 1012.3 |
| 20260510034508 | 64 | 19 | 2.0 | 4.0 | 0.00 | 0.00 | 0.00 | 38 | 1012.3 |
| 20260510034004 | 65 | 17 | 2.0 | 5.0 | 0.00 | 0.00 | 0.00 | 37 | 1012.2 |
| 20260510033504 | 65 | 35 | 2.0 | 5.0 | 0.00 | 0.00 | 0.00 | 37 | 1011.9 |
| 20260510033004 | 67 | 123 | 0.0 | 2.0 | 0.00 | 0.00 | 0.00 | 36 | 1011.7 |
| 20260510032504 | 67 | 139 | 0.0 | 2.0 | 0.00 | 0.00 | 0.00 | 35 | 1011.4 |
| 20260510032003 | 67 | 131 | 1.0 | 2.0 | 0.00 | 0.00 | 0.00 | 35 | 1011.2 |
| 20260510031503 | 68 | 120 | 0.0 | 2.0 | 0.00 | 0.00 | 0.00 | 33 | 1010.9 |
| 20260510031004 | 69 | 139 | 0.0 | 2.0 | 0.00 | 0.00 | 0.00 | 33 | 1010.6 |
| 20260510030504 | 69 | 161 | 1.0 | 5.0 | 0.00 | 0.00 | 0.00 | 31 | 1010.8 |
| 20260510030004 | 70 | 202 | 3.0 | 8.0 | 0.00 | 0.00 | 0.00 | 31 | 1010.7 |
| 20260510025504 | 69 | 200 | 3.0 | 8.0 | 0.00 | 0.00 | 0.00 | 31 | 1010.6 |
| 20260510025218 | 69 | 181 | 2.0 | 7.0 | 0.00 | 0.00 | 0.00 | 32 | 1010.6 |
| 20260510024503 | 69 | 109 | 4.0 | 6.0 | 0.00 | 0.00 | 0.00 | 33 | 1010.7 |
| 20260510024004 | 69 | 98 | 4.0 | 7.0 | 0.00 | 0.00 | 0.00 | 32 | 1010.9 |
| 20260510023503 | 69 | 82 | 2.0 | 7.0 | 0.00 | 0.00 | 0.00 | 33 | 1011.0 |
| 20260510023008 | 69 | 359 | 2.0 | 4.0 | 0.00 | 0.00 | 0.00 | 32 | 1011.3 |
| 20260510022509 | 69 | 1 | 1.0 | 4.0 | 0.00 | 0.00 | 0.00 | 33 | 1011.5 |
| 20260510022004 | 70 | 106 | 1.0 | 5.0 | 0.00 | 0.00 | 0.00 | 31 | 1011.2 |
| 20260510021503 | 70 | 99 | 4.0 | 6.0 | 0.00 | 0.00 | 0.00 | 30 | 1011.0 |
| 20260510021004 | 71 | 81 | 5.0 | 7.0 | 0.00 | 0.00 | 0.00 | 30 | 1010.9 |
| 20260510020504 | 71 | 68 | 6.0 | 10.0 | 0.00 | 0.00 | 0.00 | 30 | 1010.7 |
| 20260510020004 | 71 | 67 | 7.0 | 10.0 | 0.00 | 0.00 | 0.00 | 29 | 1010.6 |
| 20260510015503 | 71 | 67 | 7.0 | 10.0 | 0.00 | 0.00 | 0.00 | 29 | 1010.6 |
| 20260510015212 | 71 | 67 | 6.0 | 10.0 | 0.00 | 0.00 | 0.00 | 29 | 1010.5 |
| 20260510014715 | 71 | 77 | 5.0 | 9.0 | 0.00 | 0.00 | 0.00 | 29 | 1010.6 |
| 20260510014003 | 72 | 72 | 3.0 | 6.0 | 0.00 | 0.00 | 0.00 | 28 | 1010.6 |
| 20260510013503 | 73 | 44 | 5.0 | 10.0 | 0.00 | 0.00 | 0.00 | 27 | 1010.6 |
| 20260510013004 | 73 | 35 | 7.0 | 11.0 | 0.00 | 0.00 | 0.00 | 26 | 1010.7 |
| 20260510012504 | 74 | 39 | 8.0 | 14.0 | 0.00 | 0.00 | 0.00 | 26 | 1010.5 |
| 20260510012215 | 74 | 44 | 9.0 | 15.0 | 0.00 | 0.00 | 0.00 | 26 | 1010.5 |
| 20260510011504 | 74 | 44 | 12.0 | 18.0 | 0.00 | 0.00 | 0.00 | 25 | 1010.3 |
| 20260510011216 | 74 | 41 | 12.0 | 18.0 | 0.00 | 0.00 | 0.00 | 25 | 1010.3 |
| 20260510010503 | 75 | 35 | 12.0 | 19.0 | 0.00 | 0.00 | 0.00 | 24 | 1010.1 |
| 20260510010009 | 76 | 40 | 12.0 | 19.0 | 0.00 | 0.00 | 0.00 | 23 | 1010.0 |
| 20260510005503 | 76 | 45 | 10.0 | 18.0 | 0.00 | 0.00 | 0.00 | 22 | 1009.8 |
| 20260510005003 | 76 | 46 | 10.0 | 14.0 | 0.00 | 0.00 | 0.00 | 21 | 1009.5 |
| 20260510004503 | 77 | 43 | 11.0 | 18.0 | 0.00 | 0.00 | 0.00 | 21 | 1009.4 |
| 20260510004214 | 77 | 42 | 11.0 | 18.0 | 0.00 | 0.00 | 0.00 | 21 | 1009.4 |
| 20260510003503 | 77 | 48 | 10.0 | 16.0 | 0.00 | 0.00 | 0.00 | 20 | 1009.3 |
| 20260510003004 | 78 | 45 | 10.0 | 15.0 | 0.00 | 0.00 | 0.00 | 20 | 1009.3 |
| 20260510002718 | 78 | 42 | 11.0 | 16.0 | 0.00 | 0.00 | 0.00 | 20 | 1009.1 |
| 20260510002003 | 78 | 35 | 11.0 | 17.0 | 0.00 | 0.00 | 0.00 | 19 | 1009.1 |
| 20260510001503 | 78 | 35 | 11.0 | 17.0 | 0.00 | 0.00 | 0.00 | 20 | 1009.1 |
| 20260510001003 | 79 | 45 | 12.0 | 19.0 | 0.00 | 0.00 | 0.00 | 20 | 1009.1 |
| 20260510000504 | 79 | 48 | 12.0 | 19.0 | 0.00 | 0.00 | 0.00 | 19 | 1008.9 |
| 20260510000004 | 79 | 39 | 11.0 | 16.0 | 0.00 | 0.00 | 0.00 | 19 | 1008.6 |
| 20260509235503 | 79 | 35 | 12.0 | 19.0 | 0.00 | 0.00 | 0.00 | 19 | 1008.6 |
| 20260509235004 | 79 | 43 | 11.0 | 19.0 | 0.00 | 0.00 | 0.00 | 19 | 1008.6 |
| 20260509234503 | 80 | 49 | 12.0 | 17.0 | 0.00 | 0.00 | 0.00 | 19 | 1008.6 |
| 20260509234004 | 80 | 50 | 11.0 | 17.0 | 0.00 | 0.00 | 0.00 | 19 | 1008.5 |
| 20260509233504 | 80 | 55 | 11.0 | 18.0 | 0.00 | 0.00 | 0.00 | 18 | 1008.4 |
| 20260509233003 | 80 | 61 | 12.0 | 19.0 | 0.00 | 0.00 | 0.00 | 19 | 1008.4 |
| 20260509232504 | 80 | 57 | 12.0 | 19.0 | 0.00 | 0.00 | 0.00 | 19 | 1008.2 |
| 20260509232004 | 80 | 53 | 12.0 | 18.0 | 0.00 | 0.00 | 0.00 | 19 | 1008.0 |
| 20260509231504 | 80 | 58 | 12.0 | 18.0 | 0.00 | 0.00 | 0.00 | 19 | 1007.9 |
| 20260509231003 | 80 | 63 | 11.0 | 17.0 | 0.00 | 0.00 | 0.00 | 18 | 1007.9 |
| 20260509230509 | 80 | 64 | 11.0 | 17.0 | 0.00 | 0.00 | 0.00 | 17 | 1007.8 |
| 20260509230004 | 81 | 64 | 11.0 | 17.0 | 0.00 | 0.00 | 0.00 | 17 | 1007.8 |
| 20260509225503 | 82 | 64 | 10.0 | 17.0 | 0.00 | 0.00 | 0.00 | 16 | 1007.7 |
| 20260509225003 | 83 | 49 | 9.0 | 16.0 | 0.00 | 0.00 | 0.00 | 15 | 1007.6 |
| 20260509224504 | 84 | 37 | 9.0 | 16.0 | 0.00 | 0.00 | 0.00 | 14 | 1007.6 |
| 20260509224004 | 84 | 40 | 6.0 | 16.0 | 0.00 | 0.00 | 0.00 | 13 | 1007.5 |
| 20260509223504 | 84 | 64 | 4.0 | 16.0 | 0.00 | 0.00 | 0.00 | 13 | 1007.5 |
| 20260509223004 | 84 | 85 | 5.0 | 12.0 | 0.00 | 0.00 | 0.00 | 13 | 1007.6 |
| 20260509222503 | 84 | 87 | 5.0 | 12.0 | 0.00 | 0.00 | 0.00 | 13 | 1007.6 |
| 20260509222003 | 85 | 89 | 4.0 | 10.0 | 0.00 | 0.00 | 0.00 | 14 | 1007.6 |
| 20260509221715 | 84 | 74 | 4.0 | 10.0 | 0.00 | 0.00 | 0.00 | 14 | 1007.5 |
| 20260509221003 | 84 | 83 | 5.0 | 20.0 | 0.00 | 0.00 | 0.00 | 13 | 1007.8 |
| 20260509220504 | 84 | 93 | 6.0 | 20.0 | 0.00 | 0.00 | 0.00 | 14 | 1007.5 |
| 20260509220004 | 84 | 81 | 8.0 | 14.0 | 0.00 | 0.00 | 0.00 | 13 | 1007.8 |
| 20260509215509 | 84 | 84 | 9.0 | 14.0 | 0.00 | 0.00 | 0.00 | 14 | 1007.8 |
| 20260509215003 | 84 | 82 | 9.0 | 14.0 | 0.00 | 0.00 | 0.00 | 14 | 1007.7 |
| 20260509214713 | 84 | 81 | 8.0 | 14.0 | 0.00 | 0.00 | 0.00 | 14 | 1007.8 |
| 20260509214004 | 84 | 49 | 5.0 | 12.0 | 0.00 | 0.00 | 0.00 | 13 | 1007.8 |
| 20260509213504 | 84 | 29 | 4.0 | 12.0 | 0.00 | 0.00 | 0.00 | 13 | 1007.9 |
| 20260509213003 | 84 | 15 | 4.0 | 10.0 | 0.00 | 0.00 | 0.00 | 13 | 1008.0 |
| 20260509212504 | 84 | 45 | 5.0 | 10.0 | 0.00 | 0.00 | 0.00 | 12 | 1008.0 |
| 20260509212218 | 84 | 59 | 6.0 | 14.0 | 0.00 | 0.00 | 0.00 | 13 | 1008.1 |
| 20260509211504 | 84 | 54 | 7.0 | 16.0 | 0.00 | 0.00 | 0.00 | 13 | 1008.2 |
| 20260509211003 | 84 | 36 | 8.0 | 16.0 | 0.00 | 0.00 | 0.00 | 12 | 1008.3 |
| 20260509210504 | 84 | 47 | 7.0 | 13.0 | 0.00 | 0.00 | 0.00 | 13 | 1008.3 |
| 20260509210004 | 83 | 68 | 7.0 | 12.0 | 0.00 | 0.00 | 0.00 | 14 | 1008.3 |
| 20260509205503 | 83 | 55 | 8.0 | 13.0 | 0.00 | 0.00 | 0.00 | 14 | 1008.5 |
| 20260509205005 | 84 | 39 | 7.0 | 13.0 | 0.00 | 0.00 | 0.00 | 13 | 1008.6 |
| 20260509204504 | 83 | 16 | 7.0 | 17.0 | 0.00 | 0.00 | 0.00 | 13 | 1008.8 |
| 20260509204216 | 84 | 20 | 7.0 | 17.0 | 0.00 | 0.00 | 0.00 | 12 | 1008.8 |
| 20260509203504 | 84 | 24 | 6.0 | 11.0 | 0.00 | 0.00 | 0.00 | 13 | 1008.8 |
| 20260509203217 | 84 | 11 | 7.0 | 12.0 | 0.00 | 0.00 | 0.00 | 12 | 1008.9 |
| 20260509202503 | 84 | 26 | 4.0 | 13.0 | 0.00 | 0.00 | 0.00 | 13 | 1008.9 |
| 20260509202004 | 84 | 18 | 5.0 | 16.0 | 0.00 | 0.00 | 0.00 | 12 | 1008.9 |
| 20260509201508 | 84 | 352 | 9.0 | 16.0 | 0.00 | 0.00 | 0.00 | 12 | 1009.0 |
| 20260509201003 | 84 | 351 | 10.0 | 18.0 | 0.00 | 0.00 | 0.00 | 13 | 1009.1 |
| 20260509200504 | 84 | 14 | 10.0 | 18.0 | 0.00 | 0.00 | 0.00 | 13 | 1009.0 |
| 20260509200004 | 84 | 344 | 8.0 | 18.0 | 0.00 | 0.00 | 0.00 | 13 | 1009.2 |
| 20260509195503 | 83 | 296 | 6.0 | 15.0 | 0.00 | 0.00 | 0.00 | 13 | 1009.1 |
| 20260509195003 | 84 | 346 | 6.0 | 15.0 | 0.00 | 0.00 | 0.00 | 12 | 1009.2 |
| 20260509194714 | 83 | 346 | 7.0 | 16.0 | 0.00 | 0.00 | 0.00 | 14 | 1009.2 |
| 20260509194003 | 84 | 17 | 11.0 | 19.0 | 0.00 | 0.00 | 0.00 | 13 | 1009.2 |
| 20260509193503 | 84 | 12 | 11.0 | 22.0 | 0.00 | 0.00 | 0.00 | 13 | 1009.2 |
| 20260509193004 | 84 | 342 | 9.0 | 22.0 | 0.00 | 0.00 | 0.00 | 13 | 1009.2 |